Satellite-Ground Cal/Val Region Overpasses Predictions

Prediction of Satellite NPP Overpassing Cal/Val Region: PacNW

Region Location: (Latitude: 10.00, Longitude: 139.50) to (Latitude: 22.70, Longitude: 165.60).

Table of predicted overpasses for the next 14.0 days since TLE Epoch: 7/25/2017
Interval Starting Time Starting Location Ending Time Ending Location
1 07/25/2017 15:49:01 ( 22.65, 147.71) 07/25/2017 15:52:36 ( 10.03, 144.71)
2 07/26/2017 02:58:06 ( 10.05, 155.23) 07/26/2017 03:01:41 ( 22.68, 152.23)
3 07/26/2017 15:29:59 ( 22.68, 152.48) 07/26/2017 15:33:35 ( 10.00, 149.46)
4 07/27/2017 02:39:05 ( 10.02, 159.99) 07/27/2017 02:42:40 ( 22.65, 156.99)
5 07/27/2017 15:10:59 ( 22.66, 157.22) 07/27/2017 15:14:34 ( 10.04, 154.22)
6 07/28/2017 02:20:05 ( 10.05, 164.74) 07/28/2017 02:23:40 ( 22.67, 161.74)
7 07/28/2017 14:51:57 ( 22.69, 161.99) 07/28/2017 14:55:33 ( 10.01, 158.97)
8 07/29/2017 03:42:33 ( 10.02, 144.13) 07/29/2017 03:46:08 ( 22.65, 141.12)
9 07/29/2017 14:34:16 ( 18.03, 165.60) 07/29/2017 14:36:32 ( 10.04, 163.73)
10 07/29/2017 16:14:27 ( 22.66, 141.36) 07/29/2017 16:16:37 ( 15.03, 139.51)
11 07/30/2017 03:23:33 ( 10.05, 148.87) 07/30/2017 03:27:08 ( 22.68, 145.87)
12 07/30/2017 15:55:25 ( 22.69, 146.12) 07/30/2017 15:59:01 ( 10.01, 143.10)
13 07/31/2017 03:04:31 ( 10.02, 153.64) 07/31/2017 03:08:06 ( 22.65, 150.63)
14 07/31/2017 15:36:25 ( 22.66, 150.87) 07/31/2017 15:40:00 ( 10.04, 147.86)
15 08/01/2017 02:45:31 ( 10.05, 158.38) 08/01/2017 02:49:06 ( 22.68, 155.38)
16 08/01/2017 15:17:23 ( 22.69, 155.63) 08/01/2017 15:20:59 ( 10.01, 152.61)
17 08/02/2017 02:26:29 ( 10.02, 163.15) 08/02/2017 02:30:04 ( 22.65, 160.14)
18 08/02/2017 14:58:23 ( 22.66, 160.38) 08/02/2017 15:01:58 ( 10.04, 157.37)
19 08/03/2017 02:10:15 ( 19.80, 165.60) 08/03/2017 02:11:04 ( 22.68, 164.89)
20 08/03/2017 03:48:59 ( 10.06, 142.52) 08/03/2017 03:52:34 ( 22.68, 139.51)
21 08/03/2017 14:39:21 ( 22.69, 165.14) 08/03/2017 14:42:57 ( 10.01, 162.12)
22 08/03/2017 16:20:51 ( 22.69, 139.77) 08/03/2017 16:21:09 ( 21.63, 139.50)
23 08/04/2017 03:29:57 ( 10.03, 147.28) 08/04/2017 03:33:32 ( 22.65, 144.27)
24 08/04/2017 16:01:51 ( 22.66, 144.51) 08/04/2017 16:05:26 ( 10.04, 141.51)
25 08/05/2017 03:10:57 ( 10.06, 152.03) 08/05/2017 03:14:32 ( 22.68, 149.02)
26 08/05/2017 15:42:50 ( 22.69, 149.27) 08/05/2017 15:46:26 ( 10.01, 146.26)
27 08/06/2017 02:51:55 ( 10.03, 156.79) 08/06/2017 02:55:30 ( 22.65, 153.78)
28 08/06/2017 15:23:49 ( 22.66, 154.02) 08/06/2017 15:27:24 ( 10.04, 151.02)
29 08/07/2017 02:32:54 ( 10.00, 161.55) 08/07/2017 02:36:30 ( 22.69, 158.53)
30 08/07/2017 15:04:48 ( 22.68, 158.78) 08/07/2017 15:08:24 ( 10.01, 155.77)
31 08/08/2017 02:14:45 ( 13.09, 165.59) 08/08/2017 02:17:28 ( 22.66, 163.29)


NCC Satellite Cal/Val Overpasses Prediction Service
